Flag for Germany Weather past 2 weeks in Cuxhaven, Lower Saxony, Germany

Now
39 °F

Rain showers. Partly sunny.


Feels Like: 29 °F
Forecast: 38 / 42 °F
Wind: 23 mph from West

Location: Nordholz

Current Time: Mar 4, 2015 at 4:31:22 PM

Latest Report: Mar 4, 2015 at 3:54 PM


Visibility: N/A

Pressure: 30.04 "Hg

Humidity: 87%

Dew point: 36 °F

Location of CuxhavenLocation

Historic Weather in Cuxhaven — Graph

°F

Cuxhaven temperature yesterday

Maximum temperature yesterday: 43 °F (at 12:20 PM)
Minimum temperature yesterday: 36 °F (at 12:03 AM)
Average temperature yesterday: 38 °F

Past Weeks' High & Low Weather Summary

 TemperatureHumidityPressure
High46 °F (Feb 26, 1:20 PM)100% (Feb 17, 3:20 PM)30.66 "Hg (Feb 17, 3:20 PM)
Low30 °F (Feb 28, 5:20 AM)57% (Feb 28, 4:20 PM)29.24 "Hg (Feb 21, 8:20 AM)
Average38 °F86%29.82 "Hg
* Reported Feb 17 3:20 PM — Mar 4 3:20 PM, Cuxhaven, Weather by CustomWeather, © 2015

Note: Actual official high and low records may vary slightly from our data, if they occured in-between our weather recording intervals... More about our weather records

Advertising

Cuxhaven weather history for previous 24 hours

 ConditionsComfort  
Time TempWeatherWind HumidityBarometerVisibility
3:20 PM
Wed, Mar 4
41 °FSprinkles. Broken clouds.26 mph81%30.04 "Hg5 mi
2:20 PM43 °FPassing clouds.23 mph76%30.04 "HgN/A
1:20 PM39 °FBroken clouds.23 mph87%30.04 "HgN/A
12:20 PM41 °FScattered clouds.18 mph81%30.04 "HgN/A
11:20 AM41 °FSprinkles. Partly sunny.20 mph87%30.01 "HgN/A
10:20 AM39 °FPartly sunny.18 mph87%30.01 "HgN/A
9:20 AM39 °FBroken clouds.18 mph87%29.98 "HgN/A
8:45 AM37 °FBroken clouds.18 mph87%29.98 "HgN/A
8:20 AM36 °FSprinkles. Broken clouds.16 mph93%29.98 "HgN/A
7:20 AM36 °FPartly sunny.10 mph87%29.98 "HgN/A
6:20 AM36 °FPassing clouds.13 mph87%29.95 "HgN/A
5:20 AM36 °FPassing clouds.15 mph87%29.95 "HgN/A
4:20 AM37 °FPassing clouds.17 mph75%29.95 "HgN/A
3:20 AM36 °FSprinkles. Partly cloudy.13 mph87%29.95 "Hg5 mi
2:20 AM37 °FPassing clouds.13 mph81%29.95 "HgN/A
1:20 AM36 °FPassing clouds.13 mph87%29.92 "HgN/A
12:20 AM37 °FPartly cloudy.18 mph87%29.92 "HgN/A
11:20 PM
Tue, Mar 3
36 °FSnow flurries. Partly cloudy.10 mph87%29.92 "Hg6 mi
10:20 PM36 °FPassing clouds.13 mph87%29.89 "HgN/A
9:20 PM36 °FPassing clouds.14 mph93%29.89 "HgN/A
8:20 PM36 °FPassing clouds.12 mph93%29.86 "HgN/A
7:20 PM37 °FPassing clouds.15 mph87%29.86 "HgN/A
7:00 PM36 °FPassing clouds.20 mph93%29.83 "Hg5 mi
6:20 PM36 °FDrizzle. Fog.13 mph100%29.83 "Hg3 mi
6:04 PM37 °FRain. Fog.13 mph93%29.83 "Hg2 mi
5:20 PM37 °FRain. Fog.12 mph93%29.83 "Hg3 mi
4:20 PM36 °FRain. Fog.1 mph93%29.83 "Hg2 mi
Weather by CustomWeather, © 2015

See weather overviewHow to use our weather pages